[Iaude] MPEC W04: 2023 VB10 [a=1.15,e=0.35,i=12.5,H=26.2]
    mpec at marsden.cfa.harvard.edu 
    mpec at marsden.cfa.harvard.edu
       
    Thu Nov 16 06:42:59 EST 2023
    
    
  
M.P.E.C. 2023-W04                             Issued 2023 November 16, 11:41 UT
     The Minor Planet Electronic Circulars contain information on unusual
         minor planets, routine data on comets and natural satellites,
         and occasional editorial announcements.  They are published
    on behalf of Division F of the International Astronomical Union by the
          Minor Planet Center, Smithsonian Astrophysical Observatory,
                          Cambridge, MA 02138, U.S.A.
			  
             Prepared using the Tamkin Foundation Computer Network
                              MPC at CFA.HARVARD.EDU
            URL https://www.minorplanetcenter.net/    ISSN 1523-6714
                                   2023 VB10                                    
Observations:
     K23V10B* C2023 11 15.24876901 36 35.140+15 02 27.92         21.28GVEW004V00
     K23V10B  C2023 11 15.25439201 36 27.468+15 03 28.62         21.15GVEW004V00
     K23V10B  C2023 11 15.25989401 36 19.739+15 04 29.71         20.06GVEW004V00
     K23V10B KC2023 11 15.28934401 35 38.638+15 09 50.40         20.76GVEW004I52
     K23V10B  C2023 11 15.28998401 35 37.212+15 09 51.85         19.8 GVEW004H01
     K23V10B KC2023 11 15.29112501 35 36.154+15 10 10.09         20.44GVEW004I52
     K23V10B KC2023 11 15.29290301 35 33.666+15 10 29.32         20.67GVEW004I52
     K23V10B  C2023 11 15.29429201 35 31.224+15 10 38.88         20.8 GVEW004H01
     K23V10B KC2023 11 15.29469301 35 31.186+15 10 48.90         20.44GVEW004I52
     K23V10B  C2023 11 15.30424001 35 17.395+15 12 27.61         20.6 GVEW004H01
     K23V10B  C2023 11 15.31113301 35 07.820+15 13 42.92         20.8 GVEW004H01
     K23V10B 1C2023 11 15.79867 01 23 53.57 +16 45 57.4          21.0 VXEW004033
     K23V10B 1C2023 11 15.79942 01 23 52.42 +16 46 06.3          20.8 VXEW004033
     K23V10B 1C2023 11 15.80017 01 23 51.27 +16 46 15.4          20.7 VXEW004033
     K23V10B KC2023 11 15.81507701 23 29.20 +16 49 27.0          20.6 GVEW004L06
     K23V10B KC2023 11 15.81635701 23 27.23 +16 49 42.1          20.9 GVEW004L06
     K23V10B KB2023 11 15.81808 01 23 26.633+16 50 16.91         21.0 VZEW004J57
     K23V10B KB2023 11 15.83846 01 22 55.195+16 54 20.66         21.2 VZEW004J57
     K23V10B KB2023 11 15.85822 01 22 21.77 +16 58 01.4                ZEW004106
     K23V10B KB2023 11 15.86423 01 22 12.48 +16 59 12.8                ZEW004106
     K23V10B KB2023 11 15.87072 01 22 02.27 +17 00 30.0                ZEW004106
     K23V10B KC2023 11 15.87379901 21 57.57 +17 01 09.0          20.0 GVEW004L01
     K23V10B KC2023 11 15.87528401 21 55.21 +17 01 26.2          20.0 GVEW004L01
     K23V10B KB2023 11 15.87737 01 21 51.95 +17 01 49.2                ZEW004106
     K23V10B KC2023 11 15.87971901 21 48.29 +17 02 18.5          20.2 GVEW004L01
     K23V10B KB2023 11 16.12762 01 15 30.20 +17 52 34.7          20.2 GVEW004734
     K23V10B KB2023 11 16.13709 01 15 14.57 +17 54 32.0          19.8 GVEW004734
     K23V10B KB2023 11 16.14645 01 14 59.10 +17 56 28.0          20.0 GVEW004734
     K23V10B KC2023 11 16.18758101 13 49.28 +18 04 50.2          20.6 GVEW004H21
     K23V10B KC2023 11 16.18956601 13 45.97 +18 05 14.6          20.5 GVEW004H21
     K23V10B KC2023 11 16.19154901 13 42.65 +18 05 38.7          20.4 GVEW004H21
     K23V10B KC2023 11 16.19353201 13 39.32 +18 06 03.0          20.5 GVEW004H21
Observer details:
033 Karl Schwarzschild Observatory, Tautenburg.  Observers S. Melnikov, C.
    Hogner, F. Ludwig, M. Hartmann, B. Stecklum.  Measurer B. Stecklum.
    1.34-m f/3 Schmidt + CCD.
106 Crni Vrh.  Observer H. Mikuz.  0.60-m f/3.3 reflector + CMO.
734 Farpoint Observatory, Eskridge.  Observers D. Cromer, G. Hug, D. Goodin,
    R. Valentine.  Measurer D. Cromer.  0.69-m f/3.54 reflector + CMO.
H01 Magdalena Ridge Observatory, Socorro.  Observers W. H. Ryan, E. V. Ryan.
    Measurer W. H. Ryan.  2.4-m f/8.9 Ritchey-Chretien + CCD.
H21 Astronomical Research Observatory, Westfield.  Observer R. Holmes.
    Measurers T. Linder, R. Holmes, L. Horn.  0.81-m f/4.0 astrograph + CCD.
I52 Steward Observatory, Mt. Lemmon Station.  Observer D. Rankin.  Measurers
    E. C. Beshore, D. Fay, J. B. Fazekas, D. C. Fuls, A. R. Gibbs, A. D.
    Grauer, H. Groeller, J. K. Hogan, R. A. Kowalski, S. M. Larson, G. J.
    Leonard, D. Rankin, R. L. Seaman, F. C. Shelly, K. W. Wierzchos.  1.0-m
    prime focus + CCD.
J57 Centro Astronomico Alto Turia, Valencia.  Observer A. Fornas.  Measurers
    A. Fornas, G. Fornas, E. Arce, V. Mas.  0.43-m f/6.8 Reflector 0.4m + CMO.
L01 Visnjan Observatory, Tican.  Observer K. Korlevic.  1.0-m f/2.9 reflector
    + CCD.
L06 Sormano 2 Observatory, Bellagio Via Lattea.  Observers E. Valli, G.
    Ventre.  Measurer P. Sicoli.  0.36m Schmidt Cassegrain + CCD.
V00 Kitt Peak-Bok.  Observer R. A. Mastaler.  Measurers M. J. Brucker, C. E.
    Woodward, D. Fay, J. B. Fazekas, D. C. Fuls, A. R. Gibbs, H. Groeller, J.
    K. Hogan, R. A. Kowalski, S. M. Larson, C. Lejoly, G. J. Leonard, R. A.
    Mastaler, R. S. McMillan, D. Rankin, R. L. Seaman, A. Serrano, F. C.
    Shelly, K. W. Wierzchos.  2.25-m reflector + 4x4K mosaic CCD.
Orbital elements:
2023 VB10                                                Earth MOID = 0.0219 AU
Epoch 2023 Sept. 13.0 TT = JDT 2460200.5                Veres                   
M 254.83113              (2000.0)            P               Q                  
n   0.80358019     Peri.   95.48219     -0.80814650     -0.56497031             
a   1.1458205      Node    50.23849     +0.41715198     -0.74855782             
e   0.3517562      Incl.   12.50584     +0.41579256     -0.34708751             
P   1.23           H   26.24          G   0.15           U   8                  
Residuals in seconds of arc
231115 V00  0.2-  0.0     231115 033  0.1+  0.1+    231115 L01  0.3-  0.1-
231115 V00 (1.6+  0.9-)   231115 033  0.0   0.1+    231115 106  0.4+  0.1+
231115 V00  0.2+  0.0     231115 033  0.1-  0.3+    231115 L01  0.2-  0.5-
231115 I52  0.0   0.1-    231115 L06  0.0   0.8+    231116 734  0.3+  0.4-
231115 H01  0.0   0.1+    231115 L06  0.0   0.6+    231116 734  0.0   0.1+
231115 I52  0.0   0.1+    231115 J57  0.1+  0.5+    231116 734  0.0   0.7+
231115 I52  0.2-  0.2-    231115 J57  0.0   0.0     231116 H21  0.2+  0.0
231115 H01  0.0   0.0     231115 106  0.3+  0.2+    231116 H21  0.2+  0.1+
231115 I52  0.0   0.2-    231115 106  1.1+  0.1+    231116 H21  0.0   0.1-
231115 H01  0.0   0.0     231115 106  0.4-  0.0     231116 H21  0.4-  0.1-
231115 H01  0.2+  0.0     231115 L01  0.4+  0.4+
Ephemeris:
2023 VB10                a,e,i = 1.15, 0.35, 13                  q = 0.7428
Date    TT    R. A. (2000) Decl.     Delta      r    Elong.  Phase     V
2023 10 17    03 46 32.3 -04 21 49   0.2455  1.2006   142.4    30.5    24.9
...
2023 11 01    03 30 32.7 -02 10 15   0.1341  1.1170   156.5    20.7    23.1
...
2023 11 09    02 56 27.0 +03 00 40   0.08139 1.0700   166.4    12.6    21.7
...
2023 11 15    01 41 57.0 +14 18 27   0.04857 1.0341   156.5    22.4    20.8
2023 11 16    01 18 47.6 +17 27 45   0.04442 1.0281   150.6    28.2    20.8
2023 11 17    00 50 22.4 +20 59 00   0.04096 1.0220   143.3    35.3    20.8
...
2023 11 23    20 36 11.1 +33 11 34   0.04151 0.9858    86.3    91.3    22.5
...
2023 12 01    18 02 19.5 +24 02 10   0.08081 0.9379    51.4   124.8    25.9
...
2023 12 16    17 03 34.1 +14 49 52   0.1769  0.8534    38.7   133.8    28.2
M. P. C. Staff               (C) Copyright 2023 MPC           M.P.E.C. 2023-W04
    
    
More information about the Iaude
mailing list